| time (UTC) | temp F | wind direction | speed MPH | gust MPH | rain 1hr in | rain 24hr in | rain mn in | humidity % | barometer mb |
| 20260906133025 | 64 | 28 | 4.0 | 11.0 | 0.00 | 0.01 | 0.00 | 66 | 1014.5 |
| 20260906132517 | 63 | 360 | 5.0 | 12.0 | 0.00 | 0.01 | 0.00 | 65 | 1014.5 |
| 20260906132014 | 63 | 320 | 5.0 | 10.0 | 0.00 | 0.01 | 0.00 | 66 | 1014.5 |
| 20260906131519 | 63 | 25 | 4.0 | 11.0 | 0.00 | 0.01 | 0.00 | 67 | 1014.5 |
| 20260906131012 | 62 | 5 | 4.0 | 14.0 | 0.00 | 0.01 | 0.00 | 68 | 1014.5 |
| 20260906130511 | 62 | 22 | 7.0 | 14.0 | 0.00 | 0.01 | 0.00 | 69 | 1014.5 |
| 20260906130010 | 62 | 44 | 5.0 | 13.0 | 0.00 | 0.01 | 0.00 | 73 | 1014.4 |
| 20260906125507 | 61 | 38 | 4.0 | 11.0 | 0.00 | 0.01 | 0.00 | 76 | 1014.5 |
| 20260906125005 | 61 | 23 | 4.0 | 10.0 | 0.00 | 0.01 | 0.00 | 77 | 1014.5 |
| 20260906124506 | 60 | 13 | 5.0 | 12.0 | 0.00 | 0.01 | 0.00 | 78 | 1014.6 |
| 20260906124005 | 60 | 344 | 4.0 | 9.0 | 0.00 | 0.01 | 0.00 | 78 | 1014.7 |
| 20260906123504 | 59 | 311 | 3.0 | 9.0 | 0.00 | 0.01 | 0.00 | 78 | 1014.8 |
| 20260906123012 | 59 | 292 | 4.0 | 10.0 | 0.00 | 0.01 | 0.00 | 79 | 1014.8 |
| 20260906122504 | 59 | 27 | 6.0 | 10.0 | 0.00 | 0.01 | 0.00 | 78 | 1014.8 |
| 20260906122002 | 58 | 9 | 3.0 | 9.0 | 0.00 | 0.01 | 0.00 | 78 | 1014.8 |
| 20260906121502 | 58 | 23 | 5.0 | 10.0 | 0.00 | 0.01 | 0.00 | 79 | 1014.7 |
| 20260906121002 | 58 | 310 | 4.0 | 10.0 | 0.00 | 0.01 | 0.00 | 79 | 1014.8 |
| 20260906120502 | 58 | 360 | 3.0 | 10.0 | 0.00 | 0.01 | 0.00 | 80 | 1014.9 |
| 20260906115559 | 58 | 344 | 3.0 | 9.0 | 0.00 | 0.01 | 0.00 | 81 | 1014.8 |
| 20260906115058 | 58 | 333 | 2.0 | 9.0 | 0.00 | 0.01 | 0.00 | 81 | 1014.7 |
| 20260906114557 | 58 | 19 | 2.0 | 9.0 | 0.00 | 0.01 | 0.00 | 80 | 1014.7 |
| 20260906114056 | 58 | 340 | 1.0 | 9.0 | 0.00 | 0.01 | 0.00 | 80 | 1014.6 |
| 20260906113555 | 58 | 299 | 3.0 | 9.0 | 0.00 | 0.01 | 0.00 | 81 | 1014.6 |
| 20260906113055 | 58 | 338 | 3.0 | 9.0 | 0.00 | 0.01 | 0.00 | 81 | 1014.6 |
| 20260906112553 | 58 | 360 | 3.0 | 6.0 | 0.00 | 0.01 | 0.00 | 81 | 1014.5 |
| 20260906112053 | 58 | 342 | 2.0 | 8.0 | 0.00 | 0.01 | 0.00 | 81 | 1014.5 |
| 20260906111551 | 58 | 315 | 3.0 | 8.0 | 0.00 | 0.01 | 0.00 | 80 | 1014.4 |
| 20260906111049 | 58 | 21 | 2.0 | 10.0 | 0.00 | 0.01 | 0.00 | 79 | 1014.4 |
| 20260906110548 | 58 | 339 | 4.0 | 11.0 | 0.00 | 0.01 | 0.00 | 78 | 1014.3 |
| 20260906110053 | 57 | 348 | 4.0 | 11.0 | 0.00 | 0.01 | 0.00 | 79 | 1014.3 |
| 20260906105549 | 58 | 304 | 2.0 | 11.0 | 0.00 | 0.01 | 0.00 | 79 | 1014.3 |
| 20260906105046 | 58 | 24 | 3.0 | 11.0 | 0.00 | 0.01 | 0.00 | 80 | 1014.2 |
| 20260906104545 | 58 | 355 | 4.0 | 9.0 | 0.00 | 0.01 | 0.00 | 80 | 1014.2 |
| 20260906104044 | 58 | 20 | 2.0 | 6.0 | 0.00 | 0.01 | 0.00 | 79 | 1014.3 |
| 20260906103543 | 58 | 355 | 2.0 | 11.0 | 0.00 | 0.01 | 0.00 | 79 | 1014.2 |
| 20260906103100 | 58 | 319 | 4.0 | 11.0 | 0.00 | 0.01 | 0.00 | 79 | 1014.3 |
| 20260906102545 | 58 | 336 | 3.0 | 11.0 | 0.00 | 0.01 | 0.00 | 78 | 1014.3 |
| 20260906102043 | 58 | 5 | 3.0 | 11.0 | 0.00 | 0.01 | 0.00 | 79 | 1014.1 |
| 20260906101541 | 57 | 14 | 4.0 | 12.0 | 0.00 | 0.01 | 0.00 | 79 | 1014.2 |
| 20260906101039 | 57 | 46 | 4.0 | 12.0 | 0.00 | 0.01 | 0.00 | 79 | 1014.2 |
| 20260906100538 | 57 | 22 | 6.0 | 12.0 | 0.00 | 0.01 | 0.00 | 80 | 1014.1 |
| 20260906100038 | 57 | 15 | 3.0 | 11.0 | 0.00 | 0.01 | 0.00 | 82 | 1014.1 |
| 20260906095538 | 57 | 45 | 3.0 | 13.0 | 0.00 | 0.01 | 0.00 | 82 | 1014.2 |
| 20260906095036 | 57 | 42 | 5.0 | 9.0 | 0.00 | 0.01 | 0.00 | 83 | 1014.1 |
| 20260906094536 | 57 | 17 | 4.0 | 10.0 | 0.00 | 0.01 | 0.00 | 83 | 1014.0 |
| 20260906094034 | 57 | 355 | 4.0 | 10.0 | 0.00 | 0.01 | 0.00 | 83 | 1014.1 |
| 20260906093534 | 57 | 331 | 3.0 | 7.0 | 0.00 | 0.01 | 0.00 | 83 | 1014.0 |
| 20260906093038 | 58 | 315 | 1.0 | 8.0 | 0.00 | 0.01 | 0.00 | 83 | 1014.0 |
| 20260906092536 | 58 | 329 | 4.0 | 8.0 | 0.00 | 0.01 | 0.00 | 84 | 1013.7 |
| 20260906092034 | 58 | 355 | 2.0 | 10.0 | 0.00 | 0.01 | 0.00 | 84 | 1013.7 |
| 20260906091532 | 58 | 25 | 3.0 | 10.0 | 0.00 | 0.01 | 0.00 | 84 | 1013.6 |
| 20260906091032 | 58 | 18 | 3.0 | 8.0 | 0.00 | 0.01 | 0.00 | 84 | 1013.6 |
| 20260906090531 | 58 | 331 | 3.0 | 10.0 | 0.00 | 0.01 | 0.00 | 84 | 1013.5 |
| 20260906090047 | 58 | 355 | 3.0 | 10.0 | 0.00 | 0.01 | 0.00 | 83 | 1013.5 |
| 20260906085529 | 58 | 32 | 4.0 | 10.0 | 0.00 | 0.01 | 0.00 | 84 | 1013.4 |
| 20260906085027 | 58 | 355 | 5.0 | 10.0 | 0.00 | 0.01 | 0.00 | 84 | 1013.4 |
| 20260906084527 | 58 | 40 | 3.0 | 12.0 | 0.00 | 0.01 | 0.00 | 84 | 1013.4 |
| 20260906084025 | 58 | 5 | 4.0 | 12.0 | 0.00 | 0.01 | 0.00 | 84 | 1013.3 |
| 20260906083525 | 58 | 5 | 3.0 | 8.0 | 0.00 | 0.01 | 0.00 | 84 | 1013.3 |
| 20260906083030 | 58 | 344 | 2.0 | 6.0 | 0.00 | 0.01 | 0.00 | 84 | 1013.2 |
| 20260906082524 | 58 | 343 | 1.0 | 6.0 | 0.00 | 0.01 | 0.00 | 83 | 1013.2 |
| 20260906082027 | 58 | 311 | 3.0 | 8.0 | 0.00 | 0.01 | 0.00 | 83 | 1013.3 |
| 20260906081524 | 58 | 24 | 4.0 | 9.0 | 0.00 | 0.01 | 0.00 | 83 | 1013.2 |
| 20260906081024 | 58 | 320 | 2.0 | 9.0 | 0.00 | 0.01 | 0.00 | 83 | 1013.3 |
| 20260906080524 | 58 | 19 | 3.0 | 6.0 | 0.00 | 0.01 | 0.00 | 83 | 1013.3 |
| 20260906080023 | 58 | 12 | 2.0 | 10.0 | 0.00 | 0.01 | 0.00 | 83 | 1013.3 |
| 20260906075524 | 58 | 5 | 4.0 | 10.0 | 0.00 | 0.01 | 0.00 | 83 | 1013.2 |
| 20260906075022 | 58 | 61 | 3.0 | 8.0 | 0.00 | 0.01 | 0.00 | 84 | 1013.3 |
| 20260906074523 | 58 | 351 | 2.0 | 5.0 | 0.00 | 0.01 | 0.00 | 84 | 1013.3 |
| 20260906074021 | 58 | 344 | 1.0 | 4.0 | 0.00 | 0.01 | 0.00 | 84 | 1013.3 |
| 20260906073522 | 58 | 329 | 1.0 | 5.0 | 0.00 | 0.01 | 0.00 | 84 | 1013.2 |
| 20260906073021 | 58 | 331 | 2.0 | 5.0 | 0.00 | 0.01 | 0.00 | 83 | 1013.2 |
| 20260906072520 | 58 | 317 | 1.0 | 4.0 | 0.00 | 0.01 | 0.00 | 83 | 1013.3 |
| 20260906072027 | 58 | 331 | 2.0 | 8.0 | 0.00 | 0.01 | 0.00 | 83 | 1013.2 |
| 20260906071518 | 58 | 350 | 3.0 | 6.0 | 0.00 | 0.01 | 0.00 | 84 | 1013.3 |
| 20260906071018 | 58 | 5 | 2.0 | 8.0 | 0.00 | 0.01 | 0.00 | 84 | 1013.2 |
| 20260906070518 | 58 | 346 | 3.0 | 8.0 | 0.00 | 0.01 | 0.00 | 84 | 1013.2 |
| 20260906070018 | 59 | 360 | 2.0 | 8.0 | 0.00 | 0.01 | 0.00 | 84 | 1013.2 |
| 20260906065517 | 59 | 5 | 2.0 | 6.0 | 0.00 | 0.01 | 0.00 | 84 | 1013.0 |
| 20260906065018 | 58 | 30 | 3.0 | 8.0 | 0.00 | 0.01 | 0.00 | 84 | 1013.0 |
| 20260906064517 | 58 | 327 | 3.0 | 8.0 | 0.00 | 0.01 | 0.00 | 83 | 1013.0 |
| 20260906064017 | 58 | 313 | 4.0 | 8.0 | 0.00 | 0.01 | 0.00 | 83 | 1012.8 |
| 20260906063517 | 59 | 11 | 1.0 | 8.0 | 0.00 | 0.01 | 0.00 | 83 | 1012.8 |
| 20260906063028 | 59 | 35 | 2.0 | 8.0 | 0.00 | 0.01 | 0.00 | 83 | 1012.8 |
| 20260906062515 | 59 | 347 | 2.0 | 6.0 | 0.00 | 0.01 | 0.00 | 83 | 1013.0 |
| 20260906062015 | 59 | 360 | 2.0 | 8.0 | 0.00 | 0.01 | 0.00 | 83 | 1013.0 |
| 20260906061514 | 59 | 12 | 1.0 | 8.0 | 0.00 | 0.01 | 0.00 | 83 | 1012.8 |
| 20260906061014 | 59 | 26 | 1.0 | 5.0 | 0.00 | 0.01 | 0.00 | 83 | 1012.8 |
| 20260906060514 | 59 | 24 | 1.0 | 4.0 | 0.00 | 0.01 | 0.00 | 82 | 1012.9 |
| 20260906060014 | 59 | 19 | 1.0 | 4.0 | 0.00 | 0.01 | 0.00 | 82 | 1012.8 |
| 20260906055517 | 59 | 21 | 0.0 | 4.0 | 0.00 | 0.01 | 0.00 | 82 | 1012.9 |
| 20260906055012 | 59 | 344 | 0.0 | 4.0 | 0.00 | 0.01 | 0.00 | 82 | 1012.9 |
| 20260906054511 | 59 | 28 | 1.0 | 6.0 | 0.00 | 0.01 | 0.00 | 82 | 1013.0 |
| 20260906054011 | 59 | 11 | 1.0 | 8.0 | 0.00 | 0.01 | 0.00 | 82 | 1013.1 |
| 20260906053511 | 59 | 28 | 3.0 | 8.0 | 0.00 | 0.01 | 0.00 | 81 | 1013.0 |
| 20260906053011 | 59 | 360 | 2.0 | 6.0 | 0.00 | 0.01 | 0.00 | 81 | 1013.1 |
| 20260906052513 | 59 | 28 | 1.0 | 4.0 | 0.00 | 0.01 | 0.00 | 81 | 1013.0 |
| 20260906052013 | 59 | 36 | 2.0 | 4.0 | 0.00 | 0.01 | 0.00 | 81 | 1013.0 |
| 20260906051510 | 60 | 28 | 0.0 | 5.0 | 0.00 | 0.01 | 0.00 | 80 | 1013.0 |
| 20260906051009 | 60 | 34 | 2.0 | 5.0 | 0.00 | 0.01 | 0.00 | 80 | 1013.0 |
| 20260906050508 | 60 | 22 | 2.0 | 8.0 | 0.00 | 0.01 | 0.00 | 80 | 1013.1 |
| 20260906050009 | 60 | 48 | 1.0 | 8.0 | 0.00 | 0.01 | 0.00 | 80 | 1013.0 |
| 20260906045510 | 60 | 12 | 1.0 | 6.0 | 0.00 | 0.01 | 0.00 | 80 | 1013.0 |
| 20260906045010 | 60 | 40 | 2.0 | 9.0 | 0.00 | 0.01 | 0.00 | 80 | 1013.0 |
| 20260906044507 | 60 | 344 | 2.0 | 9.0 | 0.00 | 0.01 | 0.00 | 80 | 1013.0 |
| 20260906044011 | 60 | 22 | 3.0 | 9.0 | 0.00 | 0.01 | 0.00 | 80 | 1012.9 |
| 20260906043510 | 60 | 5 | 2.0 | 5.0 | 0.00 | 0.01 | 0.00 | 80 | 1013.0 |
| 20260906043007 | 60 | 38 | 2.0 | 6.0 | 0.00 | 0.01 | 0.00 | 80 | 1013.1 |
| 20260906042506 | 60 | 37 | 2.0 | 6.0 | 0.00 | 0.01 | 0.00 | 80 | 1013.1 |
| 20260906042005 | 60 | 38 | 1.0 | 6.0 | 0.00 | 0.01 | 0.00 | 79 | 1013.1 |
| 20260906041506 | 60 | 34 | 1.0 | 6.0 | 0.00 | 0.01 | 0.00 | 79 | 1013.1 |
| 20260906041007 | 61 | 15 | 1.0 | 6.0 | 0.00 | 0.01 | 0.00 | 79 | 1013.0 |
| 20260906040502 | 61 | 355 | 2.0 | 6.0 | 0.00 | 0.01 | 0.00 | 79 | 1013.1 |
| 20260906040001 | 61 | 29 | 1.0 | 5.0 | 0.00 | 0.01 | 0.01 | 79 | 1013.1 |
| 20260906035501 | 61 | 14 | 1.0 | 8.0 | 0.00 | 0.01 | 0.01 | 78 | 1013.0 |
| 20260906035101 | 61 | 13 | 2.0 | 8.0 | 0.00 | 0.01 | 0.01 | 78 | 1013.0 |
| 20260906034634 | 61 | 34 | 2.0 | 5.0 | 0.00 | 0.01 | 0.01 | 78 | 1012.9 |
| 20260906034101 | 61 | 18 | 0.0 | 8.0 | 0.00 | 0.01 | 0.01 | 78 | 1013.0 |
| 20260906033559 | 61 | 32 | 2.0 | 8.0 | 0.00 | 0.01 | 0.01 | 78 | 1012.9 |
| 20260906033059 | 61 | 20 | 2.0 | 5.0 | 0.00 | 0.01 | 0.01 | 78 | 1012.9 |
| 20260906032557 | 62 | 33 | 2.0 | 6.0 | 0.00 | 0.01 | 0.01 | 77 | 1012.9 |
| 20260906032057 | 62 | 298 | 2.0 | 10.0 | 0.00 | 0.01 | 0.01 | 77 | 1012.8 |
| 20260906031557 | 62 | 13 | 1.0 | 10.0 | 0.00 | 0.01 | 0.01 | 77 | 1012.8 |
| 20260906031056 | 62 | 30 | 1.0 | 6.0 | 0.00 | 0.01 | 0.01 | 77 | 1012.8 |
| 20260906030556 | 62 | 27 | 2.0 | 6.0 | 0.00 | 0.01 | 0.01 | 76 | 1012.8 |
| 20260906030056 | 62 | 17 | 2.0 | 10.0 | 0.00 | 0.01 | 0.01 | 76 | 1012.8 |
| 20260906025555 | 62 | 19 | 4.0 | 10.0 | 0.00 | 0.01 | 0.01 | 76 | 1012.8 |
| 20260906025057 | 62 | 360 | 3.0 | 9.0 | 0.00 | 0.01 | 0.01 | 76 | 1012.6 |
| 20260906024555 | 62 | 40 | 2.0 | 9.0 | 0.00 | 0.01 | 0.01 | 76 | 1012.7 |
| 20260906024055 | 62 | 311 | 3.0 | 8.0 | 0.00 | 0.01 | 0.01 | 76 | 1012.7 |
| 20260906023554 | 62 | 59 | 3.0 | 8.0 | 0.00 | 0.01 | 0.01 | 76 | 1012.8 |
| 20260906023056 | 62 | 348 | 3.0 | 9.0 | 0.00 | 0.01 | 0.01 | 75 | 1012.6 |
| 20260906022553 | 62 | 360 | 2.0 | 10.0 | 0.00 | 0.01 | 0.01 | 75 | 1012.7 |
| 20260906022053 | 62 | 48 | 3.0 | 10.0 | 0.00 | 0.01 | 0.01 | 76 | 1012.6 |
| 20260906021553 | 62 | 339 | 2.0 | 8.0 | 0.00 | 0.01 | 0.01 | 76 | 1012.6 |
| 20260906021056 | 62 | 15 | 2.0 | 11.0 | 0.00 | 0.01 | 0.01 | 75 | 1012.6 |
| 20260906020552 | 62 | 12 | 3.0 | 11.0 | 0.00 | 0.01 | 0.01 | 75 | 1012.6 |
| 20260906020100 | 62 | 27 | 4.0 | 11.0 | 0.00 | 0.01 | 0.01 | 76 | 1012.5 |
| 20260906015551 | 62 | 28 | 3.0 | 11.0 | 0.00 | 0.01 | 0.01 | 76 | 1012.6 |
| 20260906015051 | 62 | 26 | 2.0 | 6.0 | 0.00 | 0.01 | 0.01 | 78 | 1012.6 |
| 20260906014551 | 62 | 40 | 2.0 | 8.0 | 0.00 | 0.01 | 0.01 | 78 | 1012.6 |
| 20260906014052 | 62 | 31 | 3.0 | 8.0 | 0.00 | 0.01 | 0.01 | 78 | 1012.6 |
| 20260906013552 | 62 | 34 | 2.0 | 7.0 | 0.00 | 0.01 | 0.01 | 78 | 1012.7 |
| 20260906013103 | 62 | 50 | 3.0 | 6.0 | 0.00 | 0.01 | 0.01 | 78 | 1012.6 |
| 20260906012549 | 62 | 23 | 2.0 | 6.0 | 0.00 | 0.01 | 0.01 | 78 | 1012.6 |
| 20260906012052 | 62 | 24 | 2.0 | 6.0 | 0.00 | 0.01 | 0.01 | 77 | 1012.5 |
| 20260906011549 | 63 | 355 | 1.0 | 4.0 | 0.00 | 0.01 | 0.01 | 77 | 1012.5 |
| 20260906011047 | 63 | 355 | 0.0 | 2.0 | 0.00 | 0.01 | 0.01 | 76 | 1012.4 |
| 20260906010546 | 63 | 355 | 1.0 | 2.0 | 0.00 | 0.01 | 0.01 | 76 | 1012.4 |
| 20260906010047 | 63 | 355 | 0.0 | 3.0 | 0.00 | 0.01 | 0.01 | 76 | 1012.4 |
| 20260906005546 | 64 | 5 | 0.0 | 2.0 | 0.00 | 0.01 | 0.01 | 75 | 1012.4 |
| 20260906005046 | 64 | 5 | 0.0 | 2.0 | 0.00 | 0.01 | 0.01 | 74 | 1012.3 |
| 20260906004545 | 64 | 5 | 0.0 | 3.0 | 0.00 | 0.01 | 0.01 | 74 | 1012.2 |
| 20260906004045 | 64 | 5 | 0.0 | 3.0 | 0.00 | 0.01 | 0.01 | 73 | 1012.2 |
| 20260906003545 | 65 | 5 | 1.0 | 3.0 | 0.00 | 0.01 | 0.01 | 73 | 1012.1 |
| 20260906003045 | 65 | 28 | 1.0 | 4.0 | 0.00 | 0.01 | 0.01 | 73 | 1012.2 |
| 20260906002543 | 65 | 32 | 1.0 | 4.0 | 0.00 | 0.01 | 0.01 | 72 | 1012.1 |
| 20260906002048 | 65 | 30 | 1.0 | 4.0 | 0.00 | 0.01 | 0.01 | 71 | 1012.1 |
| 20260906001543 | 65 | 38 | 1.0 | 4.0 | 0.00 | 0.01 | 0.01 | 71 | 1012.1 |
| 20260906001047 | 65 | 360 | 1.0 | 4.0 | 0.00 | 0.01 | 0.01 | 70 | 1012.2 |
| 20260906000542 | 66 | 5 | 2.0 | 5.0 | 0.00 | 0.01 | 0.01 | 70 | 1012.1 |
| 20260906000047 | 66 | 5 | 1.0 | 5.0 | 0.00 | 0.01 | 0.01 | 69 | 1012.0 |
| 20260905235541 | 66 | 40 | 1.0 | 5.0 | 0.00 | 0.01 | 0.01 | 69 | 1012.0 |
| 20260905235042 | 66 | 47 | 1.0 | 8.0 | 0.00 | 0.01 | 0.01 | 68 | 1011.9 |
| 20260905234543 | 66 | 50 | 3.0 | 9.0 | 0.00 | 0.01 | 0.01 | 68 | 1011.9 |
| 20260905234041 | 66 | 32 | 3.0 | 13.0 | 0.00 | 0.01 | 0.01 | 67 | 1011.8 |
| 20260905233542 | 67 | 74 | 3.0 | 13.0 | 0.00 | 0.01 | 0.01 | 67 | 1011.9 |
| 20260905233044 | 67 | 59 | 2.0 | 8.0 | 0.00 | 0.01 | 0.01 | 67 | 1011.9 |
| 20260905232540 | 67 | 51 | 1.0 | 14.0 | 0.00 | 0.01 | 0.01 | 67 | 1011.9 |
| 20260905232039 | 67 | 32 | 3.0 | 16.0 | 0.00 | 0.01 | 0.01 | 66 | 1011.8 |
| 20260905231538 | 67 | 342 | 5.0 | 14.0 | 0.00 | 0.01 | 0.01 | 66 | 1011.6 |
| 20260905231038 | 67 | 336 | 2.0 | 8.0 | 0.00 | 0.01 | 0.01 | 66 | 1011.6 |
| 20260905230537 | 67 | 355 | 2.0 | 10.0 | 0.00 | 0.01 | 0.01 | 66 | 1011.5 |
| 20260905230041 | 68 | 360 | 4.0 | 10.0 | 0.00 | 0.01 | 0.01 | 66 | 1011.6 |
| 20260905225537 | 68 | 360 | 4.0 | 10.0 | 0.00 | 0.01 | 0.01 | 66 | 1011.6 |
| 20260905225036 | 68 | 355 | 4.0 | 10.0 | 0.00 | 0.01 | 0.01 | 66 | 1011.6 |
| 20260905224536 | 68 | 360 | 4.0 | 12.0 | 0.00 | 0.01 | 0.01 | 65 | 1011.5 |
| 20260905224035 | 68 | 334 | 4.0 | 12.0 | 0.00 | 0.01 | 0.01 | 65 | 1011.3 |
| 20260905223535 | 69 | 349 | 3.0 | 13.0 | 0.00 | 0.01 | 0.01 | 65 | 1011.4 |
| 20260905223040 | 69 | 11 | 4.0 | 13.0 | 0.00 | 0.01 | 0.01 | 63 | 1011.3 |
| 20260905222534 | 69 | 333 | 4.0 | 12.0 | 0.00 | 0.01 | 0.01 | 63 | 1011.1 |
| 20260905222033 | 69 | 14 | 6.0 | 12.0 | 0.00 | 0.01 | 0.01 | 63 | 1011.2 |
| 20260905221532 | 69 | 355 | 4.0 | 8.0 | 0.00 | 0.01 | 0.01 | 62 | 1011.2 |
| 20260905221032 | 69 | 5 | 3.0 | 11.0 | 0.00 | 0.01 | 0.01 | 61 | 1011.1 |
| 20260905220531 | 69 | 5 | 3.0 | 11.0 | 0.00 | 0.01 | 0.01 | 62 | 1011.0 |
| 20260905220032 | 69 | 28 | 3.0 | 10.0 | 0.00 | 0.01 | 0.01 | 62 | 1011.0 |
| 20260905215531 | 69 | 19 | 4.0 | 10.0 | 0.00 | 0.01 | 0.01 | 61 | 1010.9 |
| 20260905215030 | 69 | 5 | 4.0 | 11.0 | 0.00 | 0.01 | 0.01 | 62 | 1010.9 |
| 20260905214531 | 69 | 325 | 4.0 | 11.0 | 0.00 | 0.01 | 0.01 | 62 | 1010.8 |
| 20260905214030 | 69 | 25 | 2.0 | 8.0 | 0.00 | 0.01 | 0.01 | 62 | 1010.8 |
| 20260905213530 | 69 | 5 | 2.0 | 10.0 | 0.00 | 0.01 | 0.01 | 61 | 1010.7 |
| 20260905213029 | 69 | 29 | 3.0 | 11.0 | 0.00 | 0.01 | 0.01 | 61 | 1010.7 |
| 20260905212530 | 69 | 17 | 3.0 | 11.0 | 0.00 | 0.01 | 0.01 | 61 | 1010.6 |
| 20260905212029 | 69 | 39 | 3.0 | 11.0 | 0.00 | 0.01 | 0.01 | 62 | 1010.5 |
| 20260905211527 | 69 | 28 | 5.0 | 11.0 | 0.00 | 0.01 | 0.01 | 60 | 1010.5 |
| 20260905211029 | 70 | 19 | 3.0 | 12.0 | 0.00 | 0.01 | 0.01 | 59 | 1010.5 |
| 20260905210529 | 70 | 17 | 3.0 | 13.0 | 0.00 | 0.01 | 0.01 | 59 | 1010.5 |
| 20260905210045 | 70 | 28 | 4.0 | 15.0 | 0.00 | 0.01 | 0.01 | 59 | 1010.5 |
| 20260905205528 | 70 | 51 | 7.0 | 15.0 | 0.00 | 0.01 | 0.01 | 60 | 1010.4 |
| 20260905205027 | 70 | 360 | 3.0 | 6.0 | 0.00 | 0.01 | 0.01 | 63 | 1010.4 |
| 20260905204534 | 70 | 34 | 1.0 | 6.0 | 0.00 | 0.01 | 0.01 | 63 | 1010.3 |
| 20260905204026 | 70 | 34 | 2.0 | 10.0 | 0.00 | 0.01 | 0.01 | 62 | 1010.3 |
| 20260905203529 | 70 | 44 | 3.0 | 10.0 | 0.00 | 0.01 | 0.01 | 62 | 1010.3 |
| 20260905203027 | 70 | 19 | 3.0 | 10.0 | 0.00 | 0.01 | 0.01 | 61 | 1010.3 |
| 20260905202526 | 70 | 25 | 5.0 | 11.0 | 0.00 | 0.01 | 0.01 | 60 | 1010.3 |
| 20260905202026 | 70 | 27 | 2.0 | 11.0 | 0.00 | 0.01 | 0.01 | 61 | 1010.2 |
| 20260905201525 | 70 | 44 | 3.0 | 12.0 | 0.00 | 0.01 | 0.01 | 62 | 1010.2 |
| 20260905201024 | 70 | 33 | 4.0 | 12.0 | 0.00 | 0.01 | 0.01 | 61 | 1010.2 |
| 20260905200525 | 71 | 42 | 5.0 | 12.0 | 0.00 | 0.01 | 0.01 | 61 | 1010.3 |
| 20260905200025 | 71 | 28 | 3.0 | 14.0 | 0.00 | 0.01 | 0.01 | 61 | 1010.2 |
| 20260905195524 | 71 | 336 | 4.0 | 14.0 | 0.00 | 0.01 | 0.01 | 61 | 1010.2 |
| 20260905195027 | 70 | 328 | 4.0 | 15.0 | 0.00 | 0.01 | 0.01 | 61 | 1010.1 |
| 20260905194524 | 70 | 38 | 4.0 | 15.0 | 0.00 | 0.01 | 0.01 | 61 | 1010.1 |
| 20260905194024 | 70 | 344 | 3.0 | 12.0 | 0.00 | 0.01 | 0.01 | 63 | 1010.0 |
| 20260905193527 | 70 | 355 | 4.0 | 12.0 | 0.00 | 0.01 | 0.01 | 62 | 1010.1 |
| 20260905193023 | 70 | 360 | 3.0 | 12.0 | 0.00 | 0.01 | 0.01 | 61 | 1010.1 |
| 20260905192524 | 70 | 32 | 3.0 | 13.0 | 0.00 | 0.01 | 0.01 | 62 | 1010.0 |
| 20260905192024 | 70 | 14 | 4.0 | 15.0 | 0.00 | 0.01 | 0.01 | 62 | 1010.0 |
| 20260905191523 | 70 | 67 | 3.0 | 15.0 | 0.00 | 0.01 | 0.01 | 64 | 1010.1 |
| 20260905191022 | 70 | 34 | 2.0 | 12.0 | 0.00 | 0.01 | 0.01 | 65 | 1010.0 |
| 20260905190521 | 70 | 21 | 5.0 | 14.0 | 0.00 | 0.01 | 0.01 | 66 | 1010.1 |
| 20260905190021 | 71 | 33 | 4.0 | 14.0 | 0.00 | 0.01 | 0.01 | 65 | 1010.0 |
| 20260905185520 | 71 | 327 | 6.0 | 13.0 | 0.00 | 0.01 | 0.01 | 64 | 1010.1 |
| 20260905185026 | 70 | 333 | 4.0 | 11.0 | 0.00 | 0.01 | 0.01 | 65 | 1009.9 |
| 20260905184521 | 70 | 5 | 2.0 | 12.0 | 0.00 | 0.01 | 0.01 | 64 | 1009.9 |
| 20260905184024 | 70 | 5 | 5.0 | 12.0 | 0.00 | 0.01 | 0.01 | 64 | 1009.8 |
| 20260905183521 | 71 | 348 | 4.0 | 11.0 | 0.00 | 0.01 | 0.01 | 64 | 1009.9 |
| 20260905183019 | 71 | 17 | 4.0 | 11.0 | 0.00 | 0.01 | 0.01 | 64 | 1009.8 |
| 20260905182519 | 71 | 297 | 3.0 | 11.0 | 0.00 | 0.01 | 0.01 | 66 | 1009.9 |
| 20260905182019 | 71 | 355 | 3.0 | 12.0 | 0.00 | 0.01 | 0.01 | 66 | 1010.0 |
| 20260905181520 | 71 | 42 | 4.0 | 12.0 | 0.00 | 0.01 | 0.01 | 63 | 1010.0 |
| 20260905181017 | 70 | 327 | 3.0 | 11.0 | 0.00 | 0.01 | 0.01 | 66 | 1010.0 |
| 20260905180518 | 70 | 42 | 4.0 | 11.0 | 0.00 | 0.01 | 0.01 | 66 | 1009.9 |
| 20260905180017 | 70 | 355 | 4.0 | 11.0 | 0.00 | 0.01 | 0.01 | 67 | 1010.0 |
| 20260905175517 | 69 | 355 | 4.0 | 11.0 | 0.00 | 0.01 | 0.01 | 68 | 1009.9 |
| 20260905175017 | 70 | 344 | 3.0 | 10.0 | 0.00 | 0.01 | 0.01 | 66 | 1009.9 |
| 20260905174521 | 70 | 29 | 4.0 | 14.0 | 0.00 | 0.01 | 0.01 | 66 | 1010.1 |
| 20260905174016 | 70 | 28 | 5.0 | 14.0 | 0.00 | 0.01 | 0.01 | 65 | 1010.2 |
| 20260905173516 | 70 | 45 | 4.0 | 12.0 | 0.00 | 0.01 | 0.01 | 65 | 1010.1 |
| 20260905173015 | 71 | 21 | 2.0 | 11.0 | 0.00 | 0.01 | 0.01 | 67 | 1010.0 |
| 20260905172515 | 70 | 38 | 4.0 | 11.0 | 0.00 | 0.01 | 0.01 | 68 | 1010.2 |
| 20260905172014 | 70 | 38 | 4.0 | 16.0 | 0.00 | 0.01 | 0.01 | 69 | 1010.1 |
| 20260905171525 | 70 | 360 | 7.0 | 16.0 | 0.00 | 0.01 | 0.01 | 67 | 1010.1 |
| 20260905171012 | 70 | 19 | 3.0 | 13.0 | 0.00 | 0.01 | 0.01 | 70 | 1010.1 |
| 20260905170512 | 70 | 42 | 6.0 | 13.0 | 0.00 | 0.01 | 0.01 | 69 | 1010.0 |
| 20260905170014 | 69 | 342 | 5.0 | 12.0 | 0.00 | 0.01 | 0.01 | 71 | 1010.1 |
| 20260905165511 | 69 | 28 | 5.0 | 10.0 | 0.00 | 0.01 | 0.01 | 73 | 1010.1 |
| 20260905165015 | 68 | 355 | 4.0 | 11.0 | 0.00 | 0.01 | 0.01 | 73 | 1010.2 |
| 20260905164510 | 68 | 323 | 4.0 | 11.0 | 0.00 | 0.01 | 0.01 | 74 | 1010.2 |
| 20260905164009 | 68 | 351 | 3.0 | 10.0 | 0.00 | 0.01 | 0.01 | 75 | 1010.2 |
| 20260905163511 | 68 | 17 | 4.0 | 10.0 | 0.00 | 0.01 | 0.01 | 75 | 1010.2 |
| 20260905163009 | 68 | 346 | 2.0 | 8.0 | 0.00 | 0.01 | 0.01 | 78 | 1010.3 |
| 20260905162509 | 68 | 33 | 2.0 | 6.0 | 0.00 | 0.01 | 0.01 | 78 | 1010.2 |
| 20260905162009 | 68 | 43 | 2.0 | 9.0 | 0.00 | 0.01 | 0.01 | 80 | 1010.2 |
| 20260905161510 | 68 | 34 | 2.0 | 10.0 | 0.01 | 0.01 | 0.01 | 80 | 1010.2 |
| 20260905161009 | 67 | 9 | 3.0 | 10.0 | 0.01 | 0.01 | 0.01 | 80 | 1010.2 |
| 20260905160507 | 67 | 23 | 3.0 | 10.0 | 0.01 | 0.01 | 0.01 | 81 | 1010.3 |
| 20260905160007 | 67 | 333 | 3.0 | 10.0 | 0.01 | 0.01 | 0.01 | 81 | 1010.3 |
| 20260905155509 | 67 | 329 | 3.0 | 9.0 | 0.01 | 0.01 | 0.01 | 81 | 1010.2 |
| 20260905155006 | 67 | 348 | 1.0 | 8.0 | 0.01 | 0.01 | 0.01 | 83 | 1010.2 |
| 20260905154506 | 67 | 20 | 5.0 | 8.0 | 0.01 | 0.01 | 0.01 | 81 | 1010.2 |
| 20260905154009 | 67 | 42 | 4.0 | 8.0 | 0.01 | 0.01 | 0.01 | 82 | 1010.1 |
| 20260905153506 | 67 | 360 | 2.0 | 8.0 | 0.01 | 0.01 | 0.01 | 82 | 1010.2 |
| 20260905153005 | 67 | 338 | 2.0 | 10.0 | 0.01 | 0.01 | 0.01 | 82 | 1010.1 |
| 20260905152507 | 67 | 17 | 1.0 | 10.0 | 0.01 | 0.01 | 0.01 | 80 | 1010.1 |
| 20260905152005 | 68 | 336 | 5.0 | 10.0 | 0.01 | 0.01 | 0.01 | 77 | 1010.2 |
| 20260905151504 | 69 | 44 | 4.0 | 11.0 | 0.00 | 0.00 | 0.00 | 74 | 1010.1 |
| 20260905151007 | 69 | 360 | 2.0 | 12.0 | 0.00 | 0.00 | 0.00 | 72 | 1009.9 |
| 20260905150502 | 70 | 339 | 7.0 | 12.0 | 0.00 | 0.00 | 0.00 | 72 | 1009.9 |
| 20260905150001 | 69 | 36 | 4.0 | 9.0 | 0.00 | 0.00 | 0.00 | 74 | 1009.8 |
| 20260905145604 | 69 | 331 | 2.0 | 11.0 | 0.00 | 0.00 | 0.00 | 73 | 1009.9 |
| 20260905145100 | 69 | 32 | 4.0 | 11.0 | 0.00 | 0.00 | 0.00 | 73 | 1009.8 |
| 20260905144602 | 69 | 41 | 2.0 | 13.0 | 0.00 | 0.00 | 0.00 | 75 | 1009.9 |
| 20260905144103 | 69 | 330 | 5.0 | 13.0 | 0.00 | 0.00 | 0.00 | 75 | 1009.9 |
| 20260905143557 | 69 | 38 | 2.0 | 12.0 | 0.00 | 0.00 | 0.00 | 76 | 1009.9 |
| 20260905143104 | 69 | 321 | 6.0 | 12.0 | 0.00 | 0.00 | 0.00 | 76 | 1009.8 |
| 20260905142555 | 68 | 349 | 4.0 | 12.0 | 0.00 | 0.00 | 0.00 | 76 | 1009.8 |
| 20260905142055 | 68 | 37 | 6.0 | 12.0 | 0.00 | 0.00 | 0.00 | 78 | 1009.9 |
| 20260905141553 | 68 | 5 | 5.0 | 10.0 | 0.00 | 0.00 | 0.00 | 78 | 1009.7 |
| 20260905141052 | 67 | 14 | 5.0 | 10.0 | 0.00 | 0.00 | 0.00 | 79 | 1009.7 |
| 20260905140551 | 66 | 28 | 2.0 | 9.0 | 0.00 | 0.00 | 0.00 | 80 | 1009.7 |
| 20260905140052 | 66 | 25 | 3.0 | 9.0 | 0.00 | 0.00 | 0.00 | 81 | 1009.7 |
| 20260905135551 | 66 | 346 | 3.0 | 11.0 | 0.00 | 0.00 | 0.00 | 80 | 1009.7 |
| 20260905135052 | 66 | 30 | 4.0 | 11.0 | 0.00 | 0.00 | 0.00 | 80 | 1009.6 |
| 20260905134550 | 66 | 29 | 4.0 | 14.0 | 0.00 | 0.00 | 0.00 | 80 | 1009.5 |
| 20260905134050 | 65 | 14 | 6.0 | 14.0 | 0.00 | 0.00 | 0.00 | 81 | 1009.5 |
| 20260905133551 | 65 | 323 | 4.0 | 14.0 | 0.00 | 0.00 | 0.00 | 80 | 1009.6 |